User: anonymous   Login
Location: Cincinnati Observatory Center
(39.1389°N, 84.4225°W)
Time: 22:47:35
(UTC-05:00)
Language:

COSMOS 2428 - Orbit

View from above orbital plane
View from above orbital plane
View from above satellite
View from above satellite

Ground track
Ground track

The orbit data is extracted from the following two-line orbital elements,

1 31792U 07029A   15024.71620403  .00000270  00000-0  17147-3 0  3890
2 31792 070.9826 085.5353 0009540 179.7293 318.3515 14.12521508390592
Epoch (UTC): 24 January 2015 17:11:20
Eccentricity: 0.0009540
inclination: 70.9826°
perigee height: 844 km
apogee height: 857 km
right ascension of ascending node: 85.5353°
argument of perigee: 179.7293°
revolutions per day: 14.12521508
mean anomaly at epoch: 318.3515°
orbit number at epoch: 39059

The dashed part of the orbit path shows where the satellite is in the earth's shadow,  

DLR